Location: Unspecified
(48.8656°N, 0.0000°E)
Time: 14:43:21
(UTC+00:00)

Vanguard 1 - Pass Details

Date: 26 June 2019
Orbit: 653 x 3830 km, 34.3° (Epoch: 20 July)

Event Time Altitude Azimuth Distance (km) Brightness Sun altitude
Rises 02:22:35 0° 239° (WSW) 7,835 - -11.3°
Exits shadow 02:26:53 - 235° (SW) 6,952 13.8 -10.9°
Reaches altitude 10° 02:28:44 10° 233° (SW) 6,564 13.7 -10.8°
Maximum altitude 02:46:12 41° 173° (S) 3,353 12.4 -9.1°
Drops below altitude 10° 02:56:50 10° 108° (ESE) 4,084 13.5 -8.0°
Sets 02:59:39 0° 101° (E) 4,730 14.0 -7.7°
